Theta_e
302 302 301 301 301 301 301 301 302 302 303 303 304 304 305 305 307 304 299 297 297 294 294 295 296 291 292 293 289 294 294 295 294 289 291 291 290 292 293 294 291 287 283 286 288 280 281 299 300 292 293 297 302 301
302 301 301 301 301 301 301 301 302 302 303 303 304 304 305 305 307 306 295 296 298 295 293 297 300 301 299 300 294 294 295 296 297 293 294 295 292 293 292 287 296 287 290 287 288 286 293 295 296 298 298 299 298 297
302 301 301 301 301 300 301 301 302 302 303 303 304 305 306 306 306 306 300 295 293 294 292 292 294 301 301 300 300 293 295 299 300 303 298 295 290 294 289 291 295 296 298 290 290 292 293 294 297 297 298 298 298 299
301 301 301 300 300 300 300 301 302 302 303 303 303 305 306 306 306 306 299 294 295 292 289 290 299 298 303 301 300 300 299 300 302 301 296 294 291 297 292 294 293 296 298 291 291 294 295 295 296 297 296 297 296 296
301 301 300 300 300 300 300 301 301 302 302 303 305 306 306 306 306 304 301 296 295 291 287 289 296 299 300 301 300 298 297 297 297 296 294 292 296 295 295 294 292 297 295 291 287 295 293 293 298 299 296 295 296 294
301 300 300 300 300 300 300 301 301 302 302 303 305 306 306 306 306 295 290 295 296 295 293 288 293 295 298 300 298 297 297 295 295 295 293 296 298 295 290 288 296 298 299 299 294 297 295 295 296 297 294 294 294 293
300 300 300 300 300 300 301 301 301 302 302 303 304 305 306 306 302 292 290 294 300 294 294 290 287 294 296 297 296 295 295 293 293 292 292 294 294 295 292 287 295 296 297 298 299 299 293 293 290 292 292 292 292 290
300 300 299 299 300 300 301 301 301 302 303 304 305 306 306 306 302 295 299 303 298 293 292 284 286 289 295 291 291 293 291 293 292 290 293 291 293 294 287 294 296 295 294 294 294 294 292 292 292 291 291 290 288 287
300 299 299 299 299 300 301 301 302 302 302 304 305 305 300 296 291 293 305 304 296 294 286 286 284 281 294 290 290 291 290 287 291 289 290 291 290 287 292 293 292 293 292 290 291 291 291 289 289 289 289 288 287 286
299 299 299 299 300 300 301 301 302 302 303 303 296 293 289 293 304 303 295 292 292 290 289 285 287 285 290 289 286 288 288 285 284 287 292 290 289 292 292 292 292 292 292 291 289 287 287 287 287 287 287 287 287 286
299 299 299 299 300 300 301 301 301 301 300 293 291 288 294 301 294 290 286 286 286 285 287 287 287 286 291 287 286 288 284 285 281 285 286 285 285 289 291 289 290 290 290 288 288 287 287 287 286 286 286 286 285 285
299 298 299 299 300 300 301 301 301 299 295 296 297 300 296 292 288 286 283 286 285 284 288 286 287 288 289 289 286 287 286 286 282 288 284 281 287 289 289 288 288 288 288 287 287 286 286 286 286 285 284 283 283 284
298 299 299 299 300 301 301 301 301 302 301 300 298 293 291 286 279 284 277 282 280 286 287 287 286 286 289 289 286 284 284 281 288 284 285 285 287 289 288 288 287 287 287 287 286 286 286 284 285 284 283 283 283 282
299 299 299 300 301 301 302 302 302 300 298 293 286 278 283 283 284 283 283 284 287 287 289 292 286 285 286 286 285 284 285 285 282 282 284 285 286 288 289 289 287 286 286 285 285 284 283 282 281 282 282 283 282 281
298 299 300 301 302 303 303 303 303 295 295 290 286 278 284 287 287 287 288 287 291 289 292 288 286 285 284 285 286 284 283 281 282 283 286 285 287 289 288 287 286 285 285 284 284 283 283 282 281 280 281 281 281 282
299 300 299 302 303 303 303 299 296 293 294 291 287 284 286 286 288 287 287 288 294 290 293 290 288 285 282 283 285 283 281 280 283 291 285 286 288 288 287 287 287 286 284 283 283 283 282 281 280 280 281 281 281 281
299 296 300 302 303 302 302 294 295 294 291 290 284 286 286 286 286 288 289 289 289 289 290 287 285 286 285 285 284 287 282 283 288 286 289 290 289 288 287 287 287 286 284 283 283 282 282 282 281 280 280 281 280 281
297 299 302 302 299 297 294 295 294 293 289 286 283 285 287 290 288 289 291 291 291 293 293 289 289 283 285 283 284 290 292 293 292 291 289 289 290 290 289 286 287 285 284 283 283 283 285 285 283 282 279 281 282 283
297 298 301 301 298 293 293 294 295 289 288 286 287 288 289 290 290 291 293 295 299 298 293 292 287 287 287 290 291 292 293 293 291 291 290 292 291 290 288 288 287 285 284 283 283 283 286 286 285 285 284 284 283 284
301 301 301 301 300 293 291 292 296 289 284 287 289 289 288 290 293 293 293 294 294 291 287 284 286 289 290 292 293 292 294 294 289 287 287 288 289 289 288 287 285 284 284 284 285 287 288 287 287 286 285 285 284 283
299 296 300 296 295 294 292 291 289 289 287 286 292 288 288 292 294 293 290 295 290 288 286 290 291 292 295 295 296 296 295 294 292 292 289 286 287 288 288 287 287 286 284 285 285 286 287 286 288 288 287 286 286 286
295 300 294 296 291 290 287 288 286 289 286 287 287 290 288 287 288 289 291 290 289 291 293 293 294 295 296 297 299 298 299 299 297 294 290 290 288 288 288 289 288 287 286 286 287 287 287 288 288 288 286 286 286 285
299 297 295 291 287 281 281 290 286 289 285 286 288 286 286 289 290 292 288 290 291 294 295 296 297 297 296 298 298 297 297 296 294 294 292 291 292 292 291 290 291 289 287 288 289 288 288 287 287 288 288 287 286 285
299 294 290 288 283 281 290 287 289 286 285 284 284 285 289 292 292 289 286 286 289 294 293 293 293 292 293 294 293 294 294 293 294 295 293 292 291 290 292 291 292 291 291 291 290 289 289 288 288 288 288 288 287 285
288 285 289 285 289 287 285 286 286 284 283 284 284 288 291 292 287 287 285 285 288 291 291 290 288 286 286 286 291 293 294 291 290 292 295 294 293 291 291 291 292 292 292 290 289 289 288 289 289 288 288 288 287 286
283 284 281 285 284 283 284 283 284 285 287 288 288 290 290 289 285 283 286 286 290 290 289 288 284 284 284 287 286 289 291 293 292 292 294 294 294 293 290 289 289 289 292 292 291 289 289 289 289 288 288 288 286 287
278 282 285 291 291 288 287 287 289 290 288 287 288 288 287 284 282 284 285 290 290 290 289 287 286 289 290 290 290 287 288 291 292 293 294 295 295 295 293 292 291 293 293 292 292 291 289 289 289 289 289 289 288 288
285 287 284 288 288 289 287 288 288 285 285 285 286 284 283 282 283 287 290 291 291 288 286 287 288 288 290 290 290 286 287 289 290 293 296 295 294 293 293 293 295 287 293 294 292 292 290 290 289 289 289 289 289 289
285 287 287 287 289 290 291 288 286 286 287 285 284 281 283 287 286 282 284 288 289 288 284 284 283 285 285 285 286 287 289 289 289 291 293 291 291 291 292 292 292 293 294 292 287 290 291 291 290 290 290 290 290 289
284 286 284 287 289 287 289 288 287 288 287 286 286 285 286 284 282 283 283 283 282 281 282 283 283 283 282 282 282 284 288 288 289 287 286 287 287 289 290 291 291 291 292 291 291 289 284 288 288 290 289 288 288 287
286 285 286 288 287 288 291 291 290 290 289 287 287 284 281 280 283 283 282 281 276 281 282 281 282 283 284 285 285 284 283 286 287 288 288 288 288 289 289 290 291 292 292 292 291 290 289 289 289 289 288 288 288 287
288 288 285 285 286 290 291 290 290 288 289 289 286 288 287 285 283 284 278 285 281 283 284 284 280 284 287 287 287 287 285 286 286 287 287 287 287 288 289 289 290 292 293 294 292 291 290 290 289 289 288 288 288 288
290 290 289 288 286 287 288 289 287 286 287 285 285 285 285 285 283 284 284 287 286 285 285 285 286 287 288 287 286 286 286 287 287 285 285 285 285 286 287 289 290 291 291 294 293 291 290 290 290 289 289 289 288 287
Wind_Speed
12 12 14 15 15 16 17 18 19 20 20 21 22 22 21 19 18 9 5 3 1 3 10 3 4 5 5 4 5 10 5 4 4 6 3 3 4 2 3 3 2 4 5 3 4 4 2 3 4 1 4 1 11 10
13 13 13 14 15 15 16 17 18 19 21 21 21 21 20 19 16 12 3 2 2 4 7 3 13 15 8 10 4 3 2 2 3 2 2 1 3 3 3 3 4 4 3 6 3 2 4 5 1 3 3 6 6 15
13 13 13 14 15 15 16 17 19 19 21 21 21 22 21 19 16 9 4 3 2 3 6 4 4 10 5 6 5 2 2 3 4 3 2 1 5 3 2 3 3 4 1 5 3 8 6 7 10 12 13 15 15 15
13 13 14 14 15 14 15 17 18 20 21 22 21 22 21 20 16 11 2 2 2 2 3 8 4 13 14 6 3 6 3 1 3 2 3 3 3 4 3 3 4 3 4 6 11 8 12 13 12 15 18 18 20 17
13 13 14 14 15 16 15 16 18 20 22 22 22 23 22 20 17 7 2 3 2 3 3 6 12 6 9 10 9 4 3 4 2 4 4 4 3 3 3 3 5 5 3 3 4 8 9 4 11 16 19 17 16 17
13 12 13 14 15 16 15 16 18 20 22 23 23 23 23 18 13 2 4 2 3 2 1 5 5 7 10 14 10 9 6 4 2 3 3 3 2 2 3 3 10 13 14 7 7 14 12 11 17 17 19 15 15 16
12 12 13 14 14 16 16 16 18 21 22 23 24 23 22 16 2 3 5 3 4 1 0 4 6 6 6 5 5 5 4 2 2 2 4 3 6 5 4 5 10 12 13 12 11 8 12 15 9 12 17 15 16 15
13 12 12 13 13 15 16 17 17 20 24 24 24 23 19 4 1 3 2 2 4 3 2 2 6 6 5 4 5 4 5 3 6 2 3 3 3 4 6 3 7 10 16 16 14 14 12 11 12 13 11 9 13 10
13 12 12 12 13 13 15 18 18 21 23 24 24 14 1 3 2 3 11 4 1 3 1 1 2 5 6 3 2 5 3 5 3 4 3 3 4 6 5 3 4 5 6 10 12 13 13 14 11 9 9 8 9 7
12 11 12 12 13 13 14 16 17 21 24 19 5 3 3 2 13 8 3 3 3 3 3 0 0 4 3 3 4 3 3 2 3 3 2 5 3 3 7 5 8 9 8 4 11 6 5 6 6 6 6 5 5 5
11 11 12 13 13 13 13 15 16 20 9 5 4 2 4 10 3 4 2 3 3 3 2 2 1 2 3 2 3 1 1 2 3 4 4 2 2 2 5 7 8 9 11 12 10 8 7 6 5 5 5 5 5 5
12 9 11 13 12 14 14 13 12 6 0 3 4 4 3 4 3 1 2 3 1 2 3 1 3 2 4 2 2 4 2 2 2 1 4 2 1 6 4 7 8 8 10 11 9 9 7 7 6 5 5 5 5 5
10 9 11 12 12 15 14 13 12 12 8 2 3 2 2 2 5 2 2 2 3 2 2 2 4 1 4 3 1 2 3 1 0 4 2 2 4 6 5 6 8 7 9 10 9 8 8 7 6 4 4 3 4 3
8 9 10 13 15 16 16 16 14 7 2 2 1 4 3 2 3 4 4 3 4 2 2 2 2 1 2 3 1 2 1 1 2 1 2 2 5 8 6 5 6 5 6 6 6 6 6 6 5 5 5 3 3 3
7 8 11 15 16 10 5 3 6 1 2 3 2 4 5 3 2 3 2 0 3 2 1 2 2 2 3 2 2 2 2 2 2 1 3 3 7 9 8 5 6 6 5 5 4 5 5 5 5 4 5 4 4 3
5 11 5 6 8 6 1 2 2 1 2 3 3 2 2 1 2 1 3 2 2 2 1 2 1 1 1 1 3 1 2 2 3 2 1 5 7 7 7 6 5 5 5 5 5 4 4 4 3 2 2 3 3 3
7 3 3 10 6 3 4 2 2 4 4 3 3 1 2 2 5 3 2 3 2 3 2 1 1 1 1 1 1 0 2 3 3 1 3 7 10 10 7 7 7 7 6 6 6 5 4 4 4 3 4 3 2 3
2 2 7 3 2 1 1 2 2 3 4 2 1 3 3 4 2 2 2 2 3 2 2 0 2 1 2 2 2 1 2 2 3 4 4 6 7 7 7 8 7 6 5 5 5 4 2 2 4 3 3 2 3 3
2 3 6 5 1 0 1 3 3 3 4 3 3 2 3 3 1 1 3 2 2 2 4 2 1 1 1 1 1 2 2 3 3 3 3 4 5 7 8 7 7 5 6 5 4 3 1 3 3 2 3 2 3 3
10 10 6 3 1 1 2 3 1 1 2 3 2 2 2 2 2 3 3 2 3 2 3 2 1 1 1 1 1 1 2 3 3 2 2 2 3 6 7 7 5 6 5 5 4 4 3 3 3 3 3 3 3 3
1 2 3 3 1 2 2 2 2 3 2 2 2 1 2 1 2 2 2 2 3 1 2 2 2 2 2 2 2 2 2 3 4 4 4 4 4 5 5 4 6 5 4 4 4 3 4 4 3 4 3 4 4 4
2 5 2 2 2 1 2 2 3 2 0 2 3 1 1 0 1 2 2 2 2 2 2 2 1 1 2 2 1 2 2 3 4 3 4 9 5 5 5 6 7 6 6 6 6 5 4 3 3 4 5 6 5 5
2 1 1 1 2 2 6 2 1 3 1 2 1 1 1 2 1 1 2 2 1 1 3 2 3 2 3 2 4 3 5 4 2 2 5 5 5 6 6 7 7 7 6 5 5 6 5 5 4 4 6 6 5 5
2 2 3 3 4 3 2 3 2 1 1 1 1 2 3 2 2 2 2 1 1 2 2 3 2 2 2 3 3 3 3 3 3 3 1 5 5 5 7 7 7 6 6 6 7 6 6 6 6 4 6 7 6 6
3 4 3 4 3 2 4 3 3 3 3 3 2 2 2 2 2 2 3 2 2 3 4 3 3 3 2 1 1 2 2 3 3 3 2 2 2 3 3 3 5 6 8 8 8 8 7 7 7 6 6 7 9 8
2 3 6 4 2 4 4 3 5 4 1 1 2 2 2 2 3 2 2 3 3 3 3 3 3 2 1 2 1 2 2 3 2 2 1 3 2 1 4 5 4 4 7 7 9 10 10 9 10 10 8 7 8 9
2 4 4 3 2 2 3 2 1 2 4 4 3 3 3 3 1 1 1 1 2 2 3 4 4 3 2 1 0 2 3 2 3 4 4 3 2 2 3 5 7 4 9 10 9 11 12 12 11 10 9 7 8 8
5 2 4 4 4 4 3 2 1 3 1 1 2 2 2 1 2 2 1 1 3 5 4 3 3 4 4 2 2 3 3 4 5 3 2 3 5 5 6 4 4 7 8 9 10 10 10 11 10 11 10 9 7 8
3 2 2 4 2 3 0 2 3 2 2 2 3 2 2 1 1 1 2 2 2 4 4 4 3 3 3 3 3 3 4 5 7 2 8 2 2 4 7 6 5 0 4 7 9 9 13 11 11 11 11 9 8 7
4 3 2 2 1 2 3 3 2 2 2 3 4 2 2 2 1 1 2 2 3 3 3 3 3 3 2 2 2 4 3 5 5 5 4 3 3 5 5 5 5 4 2 5 6 5 6 6 6 4 6 5 6 6
3 3 3 2 0 2 0 3 2 3 2 3 2 4 3 2 1 2 2 2 2 3 4 3 2 2 3 3 2 3 2 3 5 4 3 3 4 4 4 5 5 5 3 3 6 8 7 7 8 9 10 10 10 10
4 4 5 4 1 3 2 2 2 2 2 2 1 2 2 2 2 1 2 3 2 1 3 3 2 2 2 2 2 2 1 3 3 3 5 4 4 5 6 5 5 6 5 3 6 7 10 11 9 10 10 12 12 12
3 3 3 3 2 2 3 3 2 1 2 1 1 1 1 3 3 2 1 0 2 3 3 2 2 1 1 2 2 2 3 3 4 5 5 5 6 6 5 4 4 5 6 5 4 7 10 11 10 11 12 11 11 11
Wind_Direction
281 292 300 308 314 319 323 326 327 331 334 335 335 337 338 341 339 354 290 222 308 281 285 262 288 297 311 316 326 320 335 3 346 24 20 4 61 25 50 46 36 91 102 83 95 89 105 340 316 149 226 75 125 112
276 284 293 300 308 314 320 322 323 328 332 332 332 332 335 337 338 349 292 261 280 235 265 278 273 257 224 260 284 310 276 265 301 284 302 312 79 42 22 82 15 57 146 132 94 215 308 306 31 322 193 103 92 108
268 280 289 297 303 312 318 321 321 326 327 329 328 330 330 332 335 345 286 302 296 296 297 336 328 313 288 217 193 230 296 324 350 299 294 82 83 352 66 55 88 25 106 88 103 358 18 36 56 66 78 91 98 105
259 271 282 290 298 308 315 317 320 322 322 326 326 326 327 329 329 331 281 253 289 296 310 285 329 315 303 315 237 208 253 37 290 340 27 39 79 3 39 11 65 317 24 117 94 121 80 50 64 83 84 87 86 82
252 266 279 293 301 306 312 316 318 320 321 322 322 322 323 324 324 318 244 237 230 112 276 286 312 275 302 335 346 9 100 109 14 18 1 34 55 37 16 37 22 355 88 84 101 79 100 74 82 82 79 78 83 96
245 260 277 289 296 303 310 314 318 320 319 318 320 319 318 318 330 25 4 271 209 154 284 310 288 294 316 341 353 5 20 60 87 96 0 8 335 86 58 61 33 57 59 43 94 81 82 76 61 74 78 79 76 80
248 262 274 285 295 302 308 313 320 319 317 315 315 313 312 308 257 152 196 234 169 129 192 299 320 299 315 332 347 347 11 44 59 66 50 9 356 37 41 49 50 62 70 62 62 69 49 39 70 69 85 83 82 77
239 250 271 283 294 301 306 310 316 318 316 315 311 308 308 308 185 341 286 115 149 100 64 356 288 341 13 339 339 6 348 11 21 61 26 30 16 54 52 23 62 74 64 51 55 64 89 97 80 73 73 81 79 75
239 253 264 275 286 296 307 307 317 319 317 314 310 306 84 43 16 245 302 46 91 132 126 46 338 290 349 346 301 332 7 34 298 49 14 57 9 47 350 105 53 21 95 112 79 70 68 70 69 66 75 73 91 94
237 255 269 279 285 294 301 307 320 321 318 317 358 41 341 261 308 330 11 0 23 346 43 198 103 288 18 0 317 353 12 20 40 337 359 46 54 36 17 39 80 87 93 102 96 80 83 83 91 88 85 87 99 109
236 248 265 274 284 294 303 312 325 326 356 23 3 335 278 312 32 35 351 34 319 10 358 284 189 298 329 15 298 52 260 349 59 298 85 78 356 41 37 67 69 78 82 74 85 77 67 87 82 81 74 73 82 82
238 250 268 280 291 295 300 306 320 312 69 261 293 280 314 18 34 60 323 317 5 259 315 24 285 250 298 19 30 342 20 10 69 300 70 83 197 110 97 86 71 73 86 84 81 86 72 63 56 63 60 61 57 65
239 254 269 281 286 286 291 295 295 290 311 277 227 279 24 287 37 195 278 298 314 270 294 346 335 354 333 26 341 20 47 236 65 45 101 180 145 119 119 111 90 80 84 92 92 93 95 83 63 71 88 87 91 80
251 269 281 286 282 281 283 277 272 298 276 265 158 311 176 212 227 192 183 195 244 211 308 326 325 10 317 347 5 14 313 90 92 112 224 202 158 132 116 102 107 98 91 85 78 76 74 74 67 54 44 42 79 47
259 269 283 284 282 287 319 189 209 146 258 243 131 235 220 243 234 203 185 160 220 198 266 12 25 77 311 331 7 349 29 9 322 286 197 173 141 131 124 119 114 109 101 92 87 75 69 64 55 34 24 37 70 79
290 298 245 240 282 286 193 71 109 161 235 223 230 273 260 24 289 224 204 232 174 137 102 64 337 348 300 349 33 6 77 272 262 347 152 121 121 120 126 130 121 116 118 116 107 104 102 108 127 104 50 55 29 77
288 239 313 301 278 249 246 140 144 223 234 221 274 240 192 233 230 254 177 201 135 89 43 103 240 139 14 118 113 68 229 232 250 128 129 146 144 145 141 133 129 130 131 130 123 117 119 136 127 93 83 52 64 63
236 282 327 0 39 15 43 198 236 243 243 236 210 257 201 217 200 250 218 158 121 129 145 76 127 23 157 169 251 278 54 38 75 115 119 118 128 138 141 133 131 130 126 122 122 113 102 75 88 111 109 89 78 68
271 272 294 317 29 167 214 234 199 253 225 217 248 231 242 263 204 188 134 137 88 100 113 117 270 204 159 209 320 103 58 81 95 76 95 98 116 132 129 126 130 129 135 135 131 119 59 51 97 115 122 92 86 74
280 277 256 265 84 284 264 255 85 294 266 245 285 268 249 244 142 103 99 81 97 92 72 114 237 174 212 194 73 98 89 101 92 88 71 108 125 131 151 152 152 139 128 122 121 132 118 101 126 123 133 142 124 100
260 246 167 126 186 251 293 313 269 221 270 273 306 18 296 268 148 131 106 133 67 96 172 188 214 234 228 216 206 197 206 180 199 185 185 172 173 144 140 142 139 137 141 152 154 149 145 135 125 125 108 98 104 97
241 161 113 205 224 222 245 232 197 287 183 257 325 333 230 104 131 130 166 89 172 165 167 154 189 227 204 167 109 128 305 233 220 197 130 119 142 156 172 169 160 170 173 177 165 165 172 162 141 129 119 116 108 109
152 165 220 110 201 86 265 138 215 217 223 262 318 280 199 133 132 125 91 164 172 150 126 119 111 52 78 78 93 69 37 30 10 258 188 188 171 161 157 170 175 170 171 179 168 158 171 164 169 147 136 129 123 114
185 213 198 203 160 242 202 234 230 229 261 279 230 227 141 119 147 80 168 246 214 103 86 80 94 81 65 52 32 21 1 3 357 354 56 144 162 186 181 180 181 184 177 157 162 160 163 172 161 163 154 153 157 155
172 237 195 211 198 234 216 207 201 212 222 207 235 180 131 109 116 191 191 223 116 116 104 87 75 72 111 54 359 36 53 43 14 317 31 61 167 107 148 166 181 177 154 153 167 166 169 166 172 174 170 168 170 173
197 228 168 204 204 184 222 201 209 200 124 287 147 138 30 141 170 202 199 190 135 133 128 129 138 106 359 201 114 351 335 325 313 288 293 52 31 238 181 172 169 199 188 174 162 169 171 172 176 182 184 177 170 170
249 252 229 233 219 183 239 226 194 158 177 202 190 171 185 162 134 217 300 296 121 143 132 144 155 145 141 136 102 308 304 313 286 279 297 299 288 281 207 185 204 197 168 167 170 170 171 172 175 181 184 181 181 177
234 211 196 185 205 202 206 141 255 199 172 175 104 79 125 16 149 197 107 22 86 100 100 76 70 83 83 79 42 354 333 317 296 253 190 119 82 47 17 354 330 164 166 175 171 165 167 168 172 174 176 180 179 178
241 251 198 225 206 180 191 174 215 232 176 106 114 133 153 44 50 12 359 67 93 98 95 99 47 57 57 40 32 23 16 12 14 357 188 153 90 24 356 349 1 41 169 161 166 165 170 168 171 176 179 180 176 167
252 172 193 252 163 186 204 162 179 148 66 108 114 95 78 59 28 359 52 67 103 125 127 119 118 98 103 81 19 21 48 41 33 30 23 35 3 324 330 341 354 356 349 156 162 132 105 125 112 113 139 144 156 162
177 140 108 55 52 283 132 138 122 93 92 86 80 106 156 196 26 38 62 74 119 105 99 92 76 86 76 47 38 20 4 32 11 15 9 322 325 322 321 344 332 321 334 192 172 168 167 166 172 172 173 175 179 178
166 173 138 127 236 306 10 64 84 71 34 82 64 103 125 117 196 224 262 146 104 115 140 124 149 98 77 74 77 70 48 317 336 335 335 322 317 316 319 323 318 315 321 281 192 182 182 182 177 180 184 188 188 190
95 73 77 83 54 29 355 58 54 80 58 93 120 145 163 163 209 163 310 226 150 155 131 127 134 132 87 114 92 24 350 315 313 306 301 296 288 284 287 282 286 301 308 323 210 188 190 193 189 186 189 192 192 191